カタログに戻る

STARLINK-33545

運用中通信VLEO
NORAD 62101·PAYLOAD·🇺🇸 United States

打ち上げ Nov 25, 2024 から Cape Canaveral Space Force Station

Loading…

次のパス (今後24時間)

TLE

最新Source: CelesTrak SupGP

元期: Sep 14, 2026, 22:26 UTC

1 62101C 24220P   26257.93520833  .00007859  00000+0  28465-3 0  2578
2 62101  42.9996 216.5330 0001210 261.5056 210.1414 15.27577216    17

AllMySatでSTARLINK-33545をリアルタイム追跡

Download on the App Store